[TLELIST] Archives

 

[list_settings.list_name] Current TLEs

February 4th 2012 PST

HST 1 20580U 90037B 12035.06600358 .00001502 00000-0 98906-4 0 9379 2 20580 028.4712 301.0061 0003481 070.7555 289.3392 15.02159347994541 ISS (ZARYA) 1 25544U 98067A 12035.41846065 .00007529 00000-0 10173-3 0 9465 2 25544 051.6420 073.0521 0020599 005.1806 190.1848 15.58670710757159 CXO 1 25867U 99040B 12034.04166667 -.00000796 00000-0 00000+0 0 6973 2 25867 071.2763 014.8814 8738014 277.7945 356.8743 00.37799408 8645 ____________________________________________________________________ These 2-Line ...Continue Reading

[list_settings.list_name] Current TLEs

February 3rd 2012 PST

HST 1 20580U 90037B 12033.80363283 .00001564 00000-0 10354-3 0 9369 2 20580 028.4724 309.2623 0003558 058.6018 301.4443 15.02156561994359 ISS (ZARYA) 1 25544U 98067A 12034.44545880 .00011316 00000-0 14957-3 0 9393 2 25544 051.6417 077.9305 0020191 001.8402 130.2047 15.58658292757002 CXO 1 25867U 99040B 12034.04166667 -.00000796 00000-0 00000+0 0 6973 2 25867 071.2763 014.8814 8738014 277.7945 356.8743 00.37799408 8645 ____________________________________________________________________ These 2-Line ...Continue Reading

[list_settings.list_name] Current TLEs

February 2nd 2012 PST

HST 1 20580U 90037B 12031.21246546 .00001872 00000-0 12639-3 0 9342 2 20580 028.4714 326.2091 0003403 033.4542 326.6189 15.02151057993965 ISS (ZARYA) 1 25544U 98067A 12033.41296711 .00012414 00000-0 16357-3 0 9357 2 25544 051.6420 083.1170 0020162 357.5674 097.1781 15.58635094756847 CXO 1 25867U 99040B 12034.04166667 -.00000796 00000-0 00000+0 0 6973 2 25867 071.2763 014.8814 8738014 277.7945 356.8743 00.37799408 8645 ____________________________________________________________________ These 2-Line ...Continue Reading

[list_settings.list_name] Current TLEs

February 1st 2012 PST

HST 1 20580U 90037B 12031.21246546 .00001872 00000-0 12639-3 0 9342 2 20580 028.4714 326.2091 0003403 033.4542 326.6189 15.02151057993965 ISS (ZARYA) 1 25544U 98067A 12032.19682069 .00011877 00000-0 15693-3 0 9271 2 25544 051.6422 089.2176 0020307 353.2379 113.1354 15.58606820756657 CXO 1 25867U 99040B 12031.41666667 -.00000942 00000-0 00000+0 0 6968 2 25867 071.2622 015.0561 8737806 277.8125 359.4397 00.37799248 8635 ____________________________________________________________________ These 2-Line ...Continue Reading

[list_settings.list_name] Current TLEs

January 31st 2012 PST

HST 1 20580U 90037B 12031.21246546 .00001872 00000-0 12639-3 0 9342 2 20580 028.4714 326.2091 0003403 033.4542 326.6189 15.02151057993965 ISS (ZARYA) 1 25544U 98067A 12031.36221133 .00012086 00000-0 15974-3 0 9220 2 25544 051.6423 093.4073 0019974 349.7869 110.5226 15.58586422756523 CXO 1 25867U 99040B 12031.41666667 -.00000942 00000-0 00000+0 0 6968 2 25867 071.2622 015.0561 8737806 277.8125 359.4397 00.37799248 8635 ____________________________________________________________________ These 2-Line ...Continue Reading

[list_settings.list_name] Current TLEs

January 30th 2012 PST

HST 1 20580U 90037B 12030.21585623 .00001983 00000-0 13465-3 0 9333 2 20580 028.4714 332.7259 0003350 023.0071 337.0570 15.02148486993812 ISS (ZARYA) 1 25544U 98067A 12030.34014478 .00009184 00000-0 12319-3 0 9167 2 25544 051.6420 098.5390 0019803 345.2293 136.5832 15.58556623756364 CXO 1 25867U 99040B 12031.41666667 -.00000942 00000-0 00000+0 0 6968 2 25867 071.2622 015.0561 8737806 277.8125 359.4397 00.37799248 8635 ____________________________________________________________________ These 2-Line ...Continue Reading

[list_settings.list_name] Current TLEs

January 29th 2012 PST

HST 1 20580U 90037B 12029.21924635 .00002158 00000-0 14762-3 0 9326 2 20580 028.4705 339.2446 0003305 012.7538 347.3082 15.02146120993663 ISS (ZARYA) 1 25544U 98067A 12029.45261574 .00018555 00000-0 24183-3 0 9106 2 25544 051.6405 102.9912 0020420 341.7052 197.0608 15.58534999756228 CXO 1 25867U 99040B 12028.79166667 -.00000981 00000-0 00000+0 0 6952 2 25867 071.2427 015.2338 8740205 277.8209 002.0526 00.37803194 8622 ____________________________________________________________________ These 2-Line ...Continue Reading

[list_settings.list_name] Current TLEs

January 28th 2012 PST

HST 1 20580U 90037B 12028.22263741 .00002235 00000-0 15339-3 0 9316 2 20580 028.4701 345.7613 0003309 002.4278 357.6444 15.02142781993517 ISS (ZARYA) 1 25544U 98067A 12028.21050258 .00020287 00000-0 25729-3 0 9038 2 25544 051.6431 109.2230 0022175 332.9071 070.3457 15.59145331756035 CXO 1 25867U 99040B 12028.79166667 -.00000981 00000-0 00000+0 0 6952 2 25867 071.2427 015.2338 8740205 277.8209 002.0526 00.37803194 8622 ____________________________________________________________________ These 2-Line ...Continue Reading

[list_settings.list_name] Current TLEs

January 27th 2012 PST

HST 1 20580U 90037B 12026.22940686 .00002061 00000-0 14050-3 0 9309 2 20580 028.4705 358.8017 0003110 335.4313 024.6203 15.02133642993210 ISS (ZARYA) 1 25544U 98067A 12027.44292461 .00018665 00000-0 23767-3 0 8986 2 25544 051.6432 113.0816 0021948 329.8843 082.1833 15.59109391755919 CXO 1 25867U 99040B 12028.79166667 -.00000981 00000-0 00000+0 0 6952 2 25867 071.2427 015.2338 8740205 277.8209 002.0526 00.37803194 8622 ____________________________________________________________________ These 2-Line ...Continue Reading

[list_settings.list_name] Current TLEs

January 26th 2012 PST

HST 1 20580U 90037B 12026.22940686 .00002061 00000-0 14050-3 0 9309 2 20580 028.4705 358.8017 0003110 335.4313 024.6203 15.02133642993210 ISS (ZARYA) 1 25544U 98067A 12026.42524796 .00022402 00000-0 28410-3 0 8920 2 25544 051.6424 118.1882 0022073 326.1252 130.2099 15.59077732755757 CXO 1 25867U 99040B 12026.12500000 -.00000914 00000-0 00000+0 0 6945 2 25867 071.2141 015.4499 8741447 277.7986 359.1146 00.37804518 8619 ____________________________________________________________________ These 2-Line ...Continue Reading
  • This mailing list is a public mailing list - anyone may join or leave, at any time.
  • This mailing list is announce-only.

International Space Station (ISS) / Hubble Space Telescope (HST) / Chandra X-Ray Observatory Orbital Data via EMAIL

Privacy Policy:

Private list